Location: Mentone
(34.5413°N, 85.5351°W)
Time: 22:17:48
(UTC-06:00)

Tiros 1 despin weight - All Passes

Search period start: 26 November 2014 00:00
Search period end: 06 December 2014 00:00
Orbit: 600 x 651 km, 48.2° (Epoch: 26 November)

Date Brightness Start Highest point End Pass type
(mag) Time Alt. Az. Time Alt. Az. Time Alt. Az.
26 Nov - 00:51:14 10° NW 00:55:56 63° NE 01:00:37 10° ESE night (unlit)
26 Nov - 02:33:46 10° W 02:37:21 22° SW 02:40:55 10° S night (unlit)
26 Nov - 16:39:44 10° S 16:42:58 19° SE 16:46:15 10° E daylight
26 Nov - 18:19:47 10° WSW 18:24:19 66° NW 18:28:57 10° NE visible
26 Nov - 20:03:17 10° WNW 20:06:44 20° NNW 20:10:13 10° NNE visible
26 Nov - 21:47:07 10° NNW 21:49:53 15° N 21:52:39 10° NE night (unlit)
26 Nov - 23:28:43 10° NW 23:32:49 29° NNE 23:36:56 10° E night (unlit)
27 Nov - 01:10:10 10° WNW 01:14:51 65° SW 01:19:31 10° SE night (unlit)
27 Nov - 16:57:21 10° SSW 17:01:37 43° SE 17:05:59 10° ENE visible
27 Nov - 18:39:11 10° W 18:43:24 36° NNW 18:47:42 10° NE visible
27 Nov - 20:23:18 10° NW 20:26:12 16° N 20:29:06 10° NNE visible
27 Nov - 22:06:10 10° NNW 22:09:23 18° NNE 22:12:36 10° NE night (unlit)
27 Nov - 23:47:25 10° NW 23:52:00 48° NNE 23:56:34 10° ESE night (unlit)
28 Nov - 01:29:28 10° WNW 01:33:36 30° SW 01:37:42 10° SSE night (unlit)
28 Nov - 15:37:07 10° SSE 15:39:16 13° SE 15:41:26 10° E daylight
28 Nov - 17:15:53 10° SW 17:20:26 88° NW 17:25:04 10° NE visible
28 Nov - 18:58:58 10° WNW 19:02:39 23° NNW 19:06:23 10° NNE visible
28 Nov - 20:43:03 10° NW 20:45:43 15° N 20:48:24 10° NE night (unlit)
28 Nov - 22:24:56 10° NNW 22:28:46 24° NNE 22:32:36 10° ENE night (unlit)
29 Nov - 00:06:14 10° NW 00:10:59 89° SW 00:15:42 10° SE night (unlit)
29 Nov - 01:49:50 10° W 01:52:11 14° SW 01:54:31 10° SSW night (unlit)
29 Nov - 15:53:55 10° SSW 15:57:50 30° SE 16:01:49 10° ENE daylight
29 Nov - 17:35:03 10° WSW 17:39:25 45° NNW 17:43:52 10° NE visible
29 Nov - 19:18:58 10° NW 19:22:03 17° NNW 19:25:09 10° NNE visible
29 Nov - 21:02:17 10° NNW 21:05:14 16° N 21:08:11 10° NE night (unlit)
29 Nov - 22:43:37 10° NW 22:48:00 37° NNE 22:52:23 10° E night (unlit)
30 Nov - 00:25:20 10° WNW 00:29:47 42° SW 00:34:14 10° SSE night (unlit)
30 Nov - 16:12:06 10° SW 16:16:33 67° SE 16:21:07 10° ENE daylight
30 Nov - 17:54:40 10° W 17:58:35 27° NNW 18:02:33 10° NE visible
30 Nov - 19:38:52 10° NW 19:41:32 15° N 19:44:13 10° NNE visible
30 Nov - 21:21:08 10° NNW 21:24:39 21° NNE 21:28:12 10° ENE night (unlit)
30 Nov - 23:02:21 10° NW 23:07:02 68° NE 23:11:45 10° ESE night (unlit)
01 Dec - 00:45:02 10° W 00:48:25 20° SW 00:51:48 10° S night (unlit)
01 Dec - 14:50:42 10° S 14:54:04 21° SE 14:57:28 10° E daylight
01 Dec - 16:30:59 10° WSW 16:35:27 60° NW 16:40:00 10° NE daylight
01 Dec - 18:14:35 10° WNW 18:17:54 19° NNW 18:21:14 10° NNE visible
01 Dec - 19:58:19 10° NNW 20:01:02 15° N 20:03:47 10° NE visible
01 Dec - 21:39:48 10° NW 21:43:56 30° NNE 21:48:06 10° E night (unlit)
01 Dec - 23:21:16 10° WNW 23:25:54 60° SW 23:30:33 10° SE night (unlit)
02 Dec - 15:08:24 10° SSW 15:12:41 46° SE 15:17:03 10° ENE daylight
02 Dec - 16:50:24 10° W 16:54:30 33° NNW 16:58:41 10° NE visible
02 Dec - 18:34:34 10° NW 18:37:20 16° N 18:40:07 10° NNE visible
02 Dec - 20:17:16 10° NNW 20:20:29 18° NNE 20:23:44 10° ENE visible
02 Dec - 21:58:28 10° NW 22:03:03 51° NNE 22:07:38 10° ESE night (unlit)
02 Dec - 23:40:37 10° WNW 23:44:36 28° SW 23:48:35 10° S night (unlit)
03 Dec - 13:47:52 10° SSE 13:50:17 14° SE 13:52:44 10° E daylight
03 Dec - 15:27:00 10° SW 15:31:29 82° NW 15:36:04 10° NE daylight
03 Dec - 17:10:12 10° WNW 17:13:44 22° NNW 17:17:20 10° NNE visible
03 Dec - 18:54:13 10° NNW 18:56:49 15° N 18:59:26 10° NE visible
03 Dec - 20:35:58 10° NW 20:39:49 25° NNE 20:43:42 10° ENE night (unlit)
03 Dec - 22:17:16 10° NW 22:21:58 83° SW 22:26:41 10° SE night (unlit)
04 Dec - 00:01:14 10° WSW 00:03:08 12° SW 00:05:02 10° SSW night (unlit)
04 Dec - 14:04:52 10° SSW 14:08:50 32° SE 14:12:52 10° ENE daylight
04 Dec - 15:46:11 10° WSW 15:50:27 42° NNW 15:54:48 10° NE daylight
04 Dec - 17:30:10 10° NW 17:33:07 17° N 17:36:05 10° NNE visible
04 Dec - 19:13:21 10° NNW 19:16:17 16° N 19:19:14 10° NE visible
04 Dec - 20:54:36 10° NW 20:58:59 39° NNE 21:03:24 10° E night (unlit)
04 Dec - 22:36:22 10° WNW 22:40:43 39° SW 22:45:05 10° SSE night (unlit)
05 Dec - 14:23:06 10° SW 14:27:32 73° SE 14:32:03 10° NE daylight
05 Dec - 16:05:49 10° W 16:09:35 26° NNW 16:13:26 10° NE daylight
05 Dec - 17:50:00 10° NW 17:52:34 15° N 17:55:09 10° NNE visible
05 Dec - 19:32:07 10° NNW 19:35:39 21° NNE 19:39:13 10° ENE visible
05 Dec - 21:13:19 10° NW 21:17:58 73° NE 21:22:40 10° ESE night (unlit)
05 Dec - 22:56:10 10° W 22:59:18 18° SW 23:02:28 10° S night (unlit)
